Weather past 2 weeks in Bantam, Cocos Islands

Now
79 °F

Sprinkles. Passing clouds.


Feels Like: 82 °F
Forecast: 78 / 83 °F
Wind: 18 mph from Southeast

Location: Cocos Island Airport

Current Time: Aug 23, 2014 at 6:47:21 AM

Latest Report: Aug 23, 2014 at 6:00 AM


Visibility: N/A

Pressure: 29.89 "Hg

Humidity: 84%

Dew point: 73 °F

Location of BantamLocation

Historic Weather in Bantam — Graph

°F

Bantam temperature yesterday

Maximum temperature yesterday: 82 °F (at 9:30 AM)
Minimum temperature yesterday: 79 °F (at 12:00 AM)
Average temperature yesterday: 80 °F

Past Weeks' High & Low Weather Summary

 TemperatureHumidityPressure
High84 °F (Aug 9, 11:30 AM)94% (Aug 12, 1:30 AM)30.01 "Hg (Aug 12, 1:30 AM)
Low75 °F (Aug 12, 12:00 AM)55% (Aug 13, 3:00 PM)29.86 "Hg (Aug 11, 4:30 PM)
Average80 °F77%29.92 "Hg
* Reported Aug 8 4:30 AM — Aug 23 5:00 AM, Bantam, Weather by CustomWeather, © 2014

Note: Actual official high and low records may vary slightly from our data, if they occured in-between our weather recording intervals... More about our weather records

Advertising

Bantam weather history for previous 24 hours

 ConditionsComfort  
Time TempWeatherWind HumidityBarometerVisibility
5:00 AM
Aug 23
79 °FPartly cloudy.17 mph84%29.86 "HgN/A
4:30 AM79 °FPassing clouds.18 mph79%29.86 "HgN/A
4:00 AM79 °FPassing clouds.20 mph79%29.86 "HgN/A
3:30 AM79 °FPartly cloudy.18 mph79%29.86 "HgN/A
3:00 AM79 °FPartly cloudy.17 mph84%29.89 "HgN/A
2:30 AM79 °FOvercast.18 mph84%29.89 "HgN/A
2:00 AM79 °FWarm.17 mph84%29.89 "HgN/A
1:30 AM79 °FPartly cloudy.17 mph84%29.89 "HgN/A
1:00 AM79 °FPartly cloudy.17 mph79%29.89 "HgN/A
12:30 AM79 °FOvercast.17 mph79%29.92 "HgN/A
11:30 PM
Aug 22
79 °FPassing clouds.16 mph79%29.92 "HgN/A
11:00 PM79 °FPassing clouds.16 mph79%29.92 "HgN/A
10:30 PM79 °FPassing clouds.16 mph79%29.92 "HgN/A
10:00 PM79 °FPassing clouds.17 mph79%29.92 "HgN/A
9:30 PM79 °FPassing clouds.17 mph79%29.92 "HgN/A
9:00 PM79 °FPassing clouds.18 mph79%29.92 "HgN/A
8:30 PM79 °FPassing clouds.18 mph79%29.92 "HgN/A
8:00 PM79 °FPassing clouds.20 mph74%29.92 "HgN/A
7:30 PM79 °FPassing clouds.20 mph79%29.89 "HgN/A
7:00 PM79 °FClear.20 mph79%29.89 "HgN/A
6:30 PM79 °FScattered clouds.20 mph74%29.89 "HgN/A
6:00 PM79 °FWarm.18 mph79%29.89 "HgN/A
5:30 PM81 °FScattered clouds.20 mph74%29.86 "HgN/A
5:00 PM81 °FScattered clouds.20 mph74%29.86 "HgN/A
4:30 PM81 °FSunny.18 mph70%29.86 "HgN/A
4:00 PM81 °FPassing clouds.20 mph74%29.86 "HgN/A
3:30 PM82 °FPassing clouds.18 mph70%29.86 "HgN/A
3:00 PM82 °FPassing clouds.20 mph70%29.86 "HgN/A
2:30 PM82 °FPassing clouds.20 mph70%29.86 "HgN/A
2:00 PM82 °FScattered clouds.20 mph70%29.86 "HgN/A
1:30 PM82 °FPassing clouds.21 mph66%29.86 "HgN/A
1:00 PM82 °FPassing clouds.18 mph70%29.89 "HgN/A
12:30 PM82 °FScattered clouds.20 mph70%29.89 "HgN/A
12:00 PM82 °FScattered clouds.21 mph70%29.89 "HgN/A
11:30 AM82 °FScattered clouds.20 mph74%29.89 "HgN/A
11:00 AM82 °FScattered clouds.21 mph74%29.89 "HgN/A
10:30 AM81 °FScattered showers. Scattered clouds.18 mph74%29.92 "HgN/A
10:00 AM81 °FScattered clouds.20 mph74%29.92 "HgN/A
9:30 AM82 °FScattered clouds.18 mph70%29.92 "HgN/A
8:30 AM81 °FScattered clouds.21 mph70%29.89 "HgN/A
8:00 AM79 °FPartly sunny.21 mph74%29.89 "HgN/A
7:30 AM79 °FPartly sunny.20 mph74%29.89 "HgN/A
7:00 AM79 °FScattered showers. Passing clouds.21 mph74%29.89 "HgN/A
6:30 AM79 °FScattered showers. Partly cloudy.22 mph74%29.89 "HgN/A
6:00 AM79 °FPartly cloudy.18 mph74%29.86 "HgN/A
Weather by CustomWeather, © 2014

See weather overviewHow to use our weather pages